Regional Weather Roundup
Issued by NWS

Home | Current Version | Previous Version | Graphics & Text | Print | Product List | Glossary On
Versions: 1 2 3 4 5 6 7 8 9 10 11 12 13 14 15 16 17 18 19 20 21 22 23 24 25 26 27 28 29 30 31 32 33 34 35 36 37 38 39 40 41 42 43 44 45 46 47 48 49 50
000
ASUS43 KTOP 252308
RWRKS

WEATHER ROUNDUP FOR KANSAS
NATIONAL WEATHER SERVICE GOODLAND KS
600 PM CDT SAT APR 25 2015

NOTE:  "FAIR" INDICATES FEW OR NO CLOUDS BELOW 12,000 FEET WITH NO
SIGNIFICANT WEATHER AND/OR OBSTRUCTIONS TO VISIBILITY.

KSZ001>006-013>018-027>032-041>047-260000-
NORTHWEST KANSAS

CITY           SKY/WX    TMP DP  RH WIND       PRES   REMARKS
GOODLAND       SUNNY     71  43  36 E8        29.70S
HAYS           SUNNY     66  50  55 NE16      29.70S
HILL CITY      PTSUNNY   64  53  67 E15       29.72R
RUSSELL        SUNNY     65  52  62 N13       29.69R
$$

KSZ061>065-074>080-084>089-260000-
SOUTHWEST KANSAS

CITY           SKY/WX    TMP DP  RH WIND       PRES   REMARKS
DODGE CITY     MOSUNNY   77  41  27 E7        29.66S
ELKHART          N/A     75  33  21 E5          N/A
GARDEN CITY    SUNNY     75  38  26 N6        29.66F
GREAT BEND     SUNNY     68  54  60 N13G18    29.68S
LIBERAL        PTSUNNY   77  34  20 E8        29.67S
$$

KSZ066>073-081>083-090>101-260000-
SOUTHEAST KANSAS

CITY           SKY/WX    TMP DP  RH WIND       PRES   REMARKS
CHANUTE        PTSUNNY   69  54  58 N15       29.64R
COFFEYVILLE    SUNNY     74  55  51 N16       29.61R
HUTCHINSON     MOSUNNY   72  53  51 NE13      29.66R
MEDICINE LODGE   N/A     80  48  32 N9        29.62R
NEWTON         PTSUNNY   66  52  59 N15       29.69R
PARSONS        MOSUNNY   71  54  54 NW13      29.64R
WICHITA INTL   PTSUNNY   74  53  48 N16       29.65R
WICHITA JABRA  MOSUNNY   72  53  51 N14       29.65R
WICHITA MCCONL SUNNY     72  54  54 NW10      29.65R
WINFIELD       SUNNY     77  56  48 N12       29.63R
$$

KSZ007>012-019>026-033>040-048>060-102>105-260000-
NORTHEAST KANSAS

CITY           SKY/WX    TMP DP  RH WIND       PRES   REMARKS
CONCORDIA      CLOUDY    53  49  86 N10       29.73R
EMPORIA        PTSUNNY   63  54  72 N16       29.66R
LAWRENCE       CLOUDY    55  50  83 N13       29.68R
MANHATTAN      CLOUDY    56  51  84 N8        29.70R
MARYSVILLE     CLOUDY    52  48  87 NE10      29.73R
OLATHE IND     CLOUDY    55  52  89 N16       29.67R
OLATHE EXE     CLOUDY    56  52  86 N13       29.66R
SALINA         PTSUNNY   65  53  65 N12       29.69R
TOPEKA BILLARD CLOUDY    55  51  86 N14       29.69R
TOPEKA FORBES  CLOUDY    56  51  84 N12       29.68R
$$



USA.gov is the U.S. government's official web portal to all federal, state and local government web resources and services.